Weather History for KRIV - November, 2012

Change the Weather History Date:

Sunday, November 4, 2012

  Actual Average Record
Temperature  
Mean Temperature 66 °F -  
Max Temperature 88 °F 70 °F 92 °F (2010)
Min Temperature 43 °F 45 °F 39 °F (2014)
Growing Degree Days 16 (Base 50)    
Moisture  
Dew Point 27 °F    
Average Humidity 34    
Maximum Humidity 80    
Minimum Humidity 7    
Precipitation  
Precipitation 0.00 in - - ()
Sea Level Pressure  
Sea Level Pressure 30.08 in    
Wind  
Wind Speed 3 mph (North)    
Max Wind Speed 13 mph    
Max Gust Speed -    
Visibility 10 miles    
Events      
Averages and records for this station are not official NWS values.
T = Trace of Precipitation, MM = Missing Value Source: NWS Daily Summary

Daily Weather History Graph

Daily Weather History Graph

Search for Another Location

Airport or City:

Trip Planner

Search our weather history database for the weather conditions in past years. The results will help you decide how hot, cold, wet, or windy it might be!

Date:

Astronomy

Nov. 04, 2012 Rise Set
Actual Time 6:11 AM PST 4:53 PM PST
Civil Twilight 5:45 AM PST 5:19 PM PST
Nautical Twilight 5:15 AM PST 5:48 PM PST
Astronomical Twilight 4:46 AM PST 6:18 PM PST
Moon 9:37 PM PST (11/4) 10:55 AM PST (11/4)
Length of Visible Light 11h 33m
Length of Day
10h 41m
Waning Gibbous, 71% of the Moon is Illuminated
Nov 4
Waning Gibbous
Nov 6
Last Quarter
Nov 13
New
Nov 20
First Quarter
Nov 28
Full

Hourly Weather History & Observations

Time (PST) Temp. Windchill Dew Point Humidity Pressure Visibility Wind Dir Wind Speed Gust Speed Precip Events Conditions
12:58 AM 48.4 °F - 37.6 °F 66% 30.07 in 10.0 mi Calm Calm - N/A   Clear
1:58 AM 46.4 °F 44.3 °F 37.9 °F 72% 30.07 in 10.0 mi NW 4.6 mph - N/A   Clear
1:58 AM 46.2 °F - 38.1 °F 73% 30.07 in 10.0 mi Calm Calm - N/A   Clear
2:58 AM 45.0 °F 43.5 °F 37.9 °F 76% 30.07 in 10.0 mi SSE 3.5 mph - N/A   Clear
3:58 AM 44.4 °F 42.9 °F 37.6 °F 77% 30.08 in 10.0 mi NNW 3.5 mph - N/A   Clear
4:58 AM 44.8 °F - 38.8 °F 80% 30.09 in 10.0 mi East 2.3 mph - N/A   Clear
5:58 AM 43.2 °F 41.5 °F 36.7 °F 78% 30.10 in 10.0 mi North 3.5 mph - N/A   Clear
6:58 AM 47.7 °F - 39.7 °F 74% 30.12 in 10.0 mi Calm Calm - N/A   Clear
7:58 AM 57.2 °F - 39.7 °F 52% 30.13 in 10.0 mi South 1.2 mph - N/A   Clear
8:58 AM 65.5 °F - 36.9 °F 35% 30.13 in 10.0 mi SE 3.5 mph - N/A   Clear
9:58 AM 74.7 °F - 34.7 °F 23% 30.12 in 10.0 mi NW 2.3 mph - N/A   Clear
10:58 AM 82.8 °F - 21.0 °F 10% 30.10 in 10.0 mi Variable 2.3 mph - N/A   Clear
11:58 AM 85.5 °F - 18.3 °F 8% 30.06 in 10.0 mi Variable 1.2 mph - N/A   Clear
12:00 PM 86.0 °F - 17.6 °F 8% 30.09 in 10.0 mi North 6.9 mph - N/A   Clear
12:02 PM 86.0 °F - 17.6 °F 8% 30.09 in 10.0 mi Variable 5.8 mph - N/A   Clear
12:58 PM 87.1 °F - 19.4 °F 8% 30.04 in 10.0 mi NW 4.6 mph - N/A   Clear
1:58 PM 88.5 °F - 19.2 °F 8% 30.04 in 10.0 mi NW 8.1 mph - N/A   Clear
2:58 PM 87.1 °F - 18.9 °F 8% 30.04 in 10.0 mi WNW 6.9 mph - N/A   Clear
3:58 PM 86.2 °F - 15.6 °F 7% 30.03 in 10.0 mi East 12.7 mph - N/A   Clear
4:58 PM 82.4 °F - 16.5 °F 9% 30.04 in 10.0 mi East 9.2 mph - N/A   Clear
5:58 PM 80.1 °F - 19.2 °F 10% 30.06 in 10.0 mi East 12.7 mph - N/A   Clear
6:58 PM 78.3 °F - 19.2 °F 11% 30.07 in 10.0 mi NNE 8.1 mph - N/A   Clear
7:58 PM 70.9 °F - 22.6 °F 16% 30.08 in 10.0 mi WNW 5.8 mph - N/A   Clear
8:58 PM 65.8 °F - 22.1 °F 19% 30.09 in 10.0 mi North 3.5 mph - N/A   Clear
9:58 PM 63.7 °F - 23.9 °F 22% 30.09 in 10.0 mi Variable 6.9 mph - N/A   Clear
10:58 PM 62.4 °F - 23.5 °F 23% 30.09 in 10.0 mi NNE 1.2 mph - N/A   Clear